Theta_e
308 308 306 306 306 305 305 304 300 295 295 301 302 308 308 309 308 309 309 308 309 309 309 309 310 312 313 316 318 318 319 320 321 321 322 323 324 326
306 307 307 307 306 306 305 304 304 300 296 300 302 306 307 306 306 308 308 307 307 307 308 308 309 310 312 314 315 317 317 317 317 318 319 320 321 323
308 304 304 306 305 305 305 303 302 303 298 300 303 305 305 305 305 306 307 307 306 305 306 307 308 309 311 313 313 315 315 315 315 315 316 317 318 320
309 307 305 305 305 305 303 301 303 300 300 296 302 300 301 302 302 302 303 305 305 305 306 306 307 309 312 311 312 314 313 313 313 313 313 313 315 317
309 307 305 303 303 302 303 301 301 300 300 298 296 299 300 300 301 302 302 304 304 306 306 308 309 310 310 312 312 312 311 309 309 308 309 310 312 315
308 306 304 304 303 303 302 301 301 300 299 297 297 297 299 300 300 298 298 301 300 305 308 309 310 309 310 312 313 314 311 308 307 306 306 306 307 310
305 304 305 304 302 302 300 300 299 300 297 296 294 295 295 295 295 296 295 299 299 304 306 309 308 309 310 313 315 313 310 308 306 305 305 305 304 307
303 303 304 302 299 300 300 300 301 298 296 296 296 295 294 295 297 296 295 295 293 304 302 304 307 309 314 314 311 309 307 306 305 304 304 305 304 305
303 302 299 298 300 299 299 300 300 299 299 298 295 296 296 298 298 298 296 296 294 299 303 301 307 305 312 314 310 308 306 304 303 303 303 304 304 304
300 299 297 297 300 298 297 297 298 298 299 298 298 299 299 300 299 298 298 298 296 301 306 300 307 304 308 315 309 307 305 304 302 303 303 302 302 302
300 299 297 298 298 297 296 295 296 297 299 298 298 297 297 297 297 297 295 295 293 299 304 301 305 305 308 311 313 308 306 303 301 302 303 301 300 301
301 302 299 298 296 296 295 294 293 294 296 297 297 297 299 299 297 299 299 295 293 297 305 299 303 303 303 310 310 310 310 305 303 301 302 303 302 306
299 299 301 297 296 295 295 295 294 295 295 295 295 296 297 299 297 300 300 300 295 296 304 301 299 302 303 303 308 308 307 307 306 308 304 301 302 305
299 300 300 295 294 294 294 295 294 295 294 293 292 294 294 296 296 298 302 303 303 301 305 302 298 301 302 302 303 307 306 305 304 304 306 306 304 302
299 298 295 294 294 295 295 295 295 294 293 291 291 292 294 298 297 298 301 305 306 307 303 305 304 304 304 304 304 304 303 303 304 303 303 303 304 305
297 298 297 296 295 296 296 296 295 294 293 292 292 292 294 296 296 297 297 300 302 304 305 305 306 307 306 306 303 301 302 301 303 303 303 301 301 303
293 295 295 296 295 295 295 295 294 293 292 292 291 291 292 294 295 296 296 298 300 300 299 302 305 305 303 305 301 302 302 302 303 303 304 301 301 300
292 292 292 293 292 292 292 292 292 292 292 291 291 291 291 292 294 295 296 297 299 296 297 299 302 303 303 302 302 301 302 302 305 306 305 301 302 303
293 292 291 291 291 291 291 291 290 291 291 290 290 290 291 292 293 294 294 297 296 296 297 300 302 306 298 294 298 298 301 305 304 304 304 302 299 302
292 290 290 290 290 289 290 290 290 289 289 289 289 290 291 291 292 293 294 295 296 297 299 300 302 302 299 295 294 296 294 306 304 302 301 303 300 297
290 289 289 289 289 290 289 290 288 289 288 289 290 290 290 291 292 293 293 290 291 299 299 297 297 292 300 302 297 297 298 297 300 305 306 304 302 302
289 288 288 288 288 289 289 288 288 288 289 289 289 289 290 291 293 293 294 295 297 298 299 301 301 302 301 300 297 297 299 302 301 298 298 299 304 300
288 288 287 287 288 288 288 287 288 288 289 289 289 289 290 291 293 293 293 295 298 298 298 297 298 299 298 300 297 298 299 299 300 299 298 298 298 298
Wind_Speed
5 5 6 6 7 8 8 8 7 12 12 12 9 8 8 10 13 14 13 17 21 20 19 19 20 19 19 19 19 18 18 19 21 22 23 23 23 25
6 7 8 7 9 9 10 10 8 9 12 11 10 9 11 11 13 13 12 19 17 19 18 19 20 19 20 18 18 18 17 18 20 23 25 25 25 25
10 8 9 10 9 10 10 10 9 9 11 11 11 11 12 13 14 14 14 14 12 18 19 20 19 20 18 17 18 17 17 19 21 23 25 26 25 25
13 11 11 8 11 11 9 12 9 9 9 15 12 8 9 12 13 13 12 11 13 17 18 21 20 18 16 15 16 16 17 19 21 24 25 26 26 25
12 10 9 10 11 8 9 10 9 8 9 8 8 7 8 8 11 11 12 13 10 15 16 15 15 15 16 14 16 15 17 15 20 21 23 25 25 25
9 8 10 11 10 10 10 11 9 10 10 10 8 9 9 10 9 9 11 10 11 12 11 11 11 15 16 15 15 16 14 18 20 19 20 22 23 21
10 11 10 12 15 13 9 11 12 10 9 10 9 9 9 7 8 6 11 10 11 10 8 8 8 5 6 9 10 13 16 17 18 18 19 14 15 16
11 12 11 12 11 13 15 17 14 12 12 9 9 9 8 9 8 8 10 8 7 7 10 11 7 7 5 5 10 14 14 17 16 16 14 9 9 11
10 10 10 7 12 10 13 15 15 15 13 10 11 11 11 10 9 11 10 9 8 12 9 8 5 7 7 6 10 13 14 17 14 13 11 6 8 11
8 9 9 10 10 10 11 13 12 11 10 7 10 11 10 9 10 11 12 9 10 11 2 3 7 5 6 4 9 12 14 15 13 12 13 6 9 9
11 8 8 10 10 9 11 12 13 11 9 10 12 14 14 12 9 9 8 5 7 8 2 3 4 6 4 5 6 12 13 14 14 14 13 13 12 11
12 12 11 11 11 10 10 10 11 11 10 11 10 9 9 7 8 9 7 6 5 7 3 5 4 3 4 2 4 8 8 15 11 19 16 13 11 8
12 11 11 8 11 11 10 9 9 10 12 9 8 7 8 5 4 6 6 7 4 6 8 3 4 3 3 3 2 6 8 8 8 7 18 20 15 12
14 11 11 8 12 12 10 11 12 11 6 5 6 6 6 5 5 6 9 8 7 12 12 7 4 4 3 3 3 5 7 8 8 8 9 10 16 26
11 13 17 17 16 13 14 12 10 5 5 5 5 5 6 6 7 7 7 8 10 7 5 9 5 6 3 2 2 3 4 8 8 8 10 12 11 10
14 12 14 14 16 14 9 6 4 5 6 5 4 4 5 6 5 4 6 6 5 2 4 5 6 3 1 4 4 6 8 4 7 9 9 11 11 11
13 9 9 7 7 6 5 4 4 4 4 4 3 3 4 6 4 4 5 5 5 3 3 4 4 8 9 6 6 5 6 7 7 6 8 11 11 10
7 7 7 7 7 6 6 3 4 5 3 3 3 3 3 5 3 4 4 4 3 3 3 2 1 1 3 9 17 6 6 5 6 8 9 11 12 11
7 7 7 7 5 5 6 4 4 3 3 3 3 3 2 4 3 2 3 3 3 3 3 1 1 2 6 5 3 20 4 5 8 10 10 10 9 9
7 8 7 7 6 6 5 5 4 3 3 3 3 2 2 3 2 1 2 3 3 3 2 3 3 4 7 4 3 5 20 7 8 9 10 9 9 12
8 8 7 7 6 5 4 4 4 3 3 2 2 2 2 2 2 0 1 2 3 2 5 4 4 7 9 6 6 5 9 20 15 6 4 8 8 7
8 8 7 7 6 5 4 4 3 3 2 1 1 1 2 2 1 1 1 1 3 3 2 6 3 4 6 10 8 7 6 9 14 19 19 12 1 5
8 8 7 6 6 5 4 3 3 2 1 1 1 2 2 2 3 1 1 1 2 3 5 6 5 7 7 9 9 8 12 10 8 10 11 18 22 19
Wind_Direction
295 284 290 305 305 301 296 286 284 303 307 312 302 303 286 310 318 304 307 307 306 302 303 306 306 303 297 298 299 295 293 291 289 285 283 277 275 267
283 283 293 308 306 308 300 292 275 284 294 307 309 305 310 311 300 306 310 301 296 294 294 299 301 298 297 295 296 288 292 291 289 284 278 274 269 263
279 276 291 303 307 310 308 302 293 298 292 301 302 305 301 314 321 319 307 303 299 297 293 298 298 296 289 288 287 288 287 289 286 287 280 272 266 259
295 287 288 303 307 310 311 310 306 296 288 294 303 303 319 305 300 309 310 303 303 297 295 297 295 288 288 284 282 276 277 281 280 285 281 271 265 254
302 297 298 297 304 311 309 310 309 308 300 300 303 299 293 293 309 302 307 307 295 298 285 280 276 286 294 285 276 280 283 283 289 284 279 270 258 249
314 300 292 297 295 300 304 307 313 310 315 312 301 296 305 327 303 312 314 310 330 312 287 262 293 297 285 274 282 287 302 301 297 293 283 268 247 238
320 309 302 302 293 294 300 302 303 307 308 310 310 314 317 314 316 316 296 326 318 296 314 323 314 275 274 283 301 320 313 310 306 301 294 277 217 212
324 319 311 312 298 295 294 293 290 301 300 303 304 301 304 308 319 321 311 324 320 309 329 306 304 299 296 283 315 313 314 326 319 315 301 255 210 203
312 313 317 305 304 302 296 295 296 297 287 290 290 298 308 308 317 308 310 309 303 297 301 290 312 311 310 328 320 319 335 338 328 326 322 262 201 193
298 298 295 297 303 298 300 300 300 302 295 289 290 294 303 307 302 298 299 304 294 292 306 277 317 290 299 330 327 332 346 347 342 346 352 320 180 166
293 287 277 286 300 286 292 294 295 299 292 281 278 280 275 274 279 293 292 303 307 310 311 303 319 319 298 318 341 353 351 355 1 10 8 47 105 103
291 287 272 264 275 283 288 289 287 292 300 301 302 296 276 283 279 274 289 284 287 300 84 340 325 328 309 313 332 6 359 359 357 38 31 45 66 85
297 294 292 243 257 273 278 287 275 290 291 293 297 290 291 287 293 289 279 276 264 260 302 8 304 297 276 299 308 20 13 4 5 29 52 49 60 80
300 300 295 267 263 271 282 277 280 285 283 282 284 288 295 299 306 302 293 277 241 259 290 302 267 289 305 301 340 356 25 18 19 31 37 39 58 58
301 301 288 279 269 268 248 259 280 282 274 267 269 275 293 305 301 297 300 281 263 257 254 272 263 279 276 308 345 2 7 23 27 43 48 48 40 42
313 306 294 279 267 260 269 259 256 273 278 266 272 277 285 281 293 312 310 312 297 306 272 317 317 268 327 56 63 57 39 48 23 39 57 56 43 41
306 296 295 294 297 296 274 259 275 281 278 270 265 268 277 279 288 312 307 309 288 350 328 337 25 76 61 56 74 52 60 53 42 33 63 66 52 42
304 298 302 307 302 301 292 272 279 275 272 278 259 262 258 268 283 310 302 296 312 323 306 313 302 191 90 59 40 77 51 39 39 54 65 72 73 60
313 310 308 308 306 309 305 294 289 279 288 277 257 252 252 260 255 292 313 307 342 312 294 268 263 146 95 87 3 23 59 63 66 63 68 75 76 50
322 319 318 314 308 304 304 298 300 292 265 259 245 239 236 265 254 273 326 326 318 307 21 28 57 93 112 91 93 38 24 77 80 86 89 84 83 127
327 323 321 318 318 315 311 315 294 279 293 272 240 229 223 235 219 244 315 307 305 347 64 52 61 83 111 114 88 68 54 42 39 41 116 103 95 88
321 318 318 317 315 310 311 314 306 300 290 258 205 193 198 235 238 125 334 10 44 28 56 91 68 79 89 100 94 90 78 73 74 58 47 35 337 108
319 317 314 312 311 305 302 298 303 302 286 202 162 156 167 188 121 74 8 350 25 77 99 89 78 82 80 94 92 86 83 70 64 57 48 41 60 73